Flag for Norway Weather past 2 weeks in Jan Mayen, Jan Mayen, Norway

Now
18 °F

Cold.


Feels Like: 1 °F
Forecast: 25 / 34 °F
Wind: 21 mph from Northwest

Location: Jan Mayen

Current Time: Feb 2, 2015 at 12:46:44 AM

Latest Report: Feb 2, 2015 at 12:00 AM


Visibility: N/A

Pressure: 29.55 "Hg

Humidity: 93%

Dew point: 16 °F

Location of Jan MayenLocation

Historic Weather in Jan Mayen — Graph

°F

Jan Mayen temperature yesterday

Maximum temperature yesterday: 21 °F (at 2:00 AM)
Minimum temperature yesterday: 16 °F (at 6:00 PM)
Average temperature yesterday: 19 °F

Past Weeks' High & Low Weather Summary

 TemperatureHumidityPressure
High37 °F (Jan 22, 11:00 AM)98% (Jan 25, 3:00 PM)30.27 "Hg (Jan 25, 3:00 PM)
Low16 °F (Feb 1, 6:00 PM)62% (Jan 18, 4:00 AM)28.20 "Hg (Jan 26, 1:00 AM)
Average29 °F83%29.47 "Hg
* Reported Jan 17 11:00 PM — Feb 1 11:00 PM, Jan Mayen, Weather by CustomWeather, © 2014

Note: Actual official high and low records may vary slightly from our data, if they occured in-between our weather recording intervals... More about our weather records

Advertising

Jan Mayen weather history for previous 24 hours

 ConditionsComfort  
Time TempWeatherWind HumidityBarometerVisibility
11:00 PM
Feb 1
17 °FCold.22 mph86%29.56 "HgN/A
10:00 PM17 °FCold.21 mph86%29.57 "HgN/A
9:00 PM17 °FCold.22 mph75%29.58 "HgN/A
8:00 PM17 °FCold.22 mph72%29.60 "HgN/A
7:00 PM17 °FOvercast.20 mph74%29.61 "Hg1 mi
6:00 PM16 °FCold.18 mph79%29.63 "HgN/A
5:00 PM17 °FCold.18 mph72%29.65 "HgN/A
4:00 PM17 °FOvercast.17 mph70%29.65 "Hg2 mi
3:00 PM17 °FCold.17 mph70%29.65 "HgN/A
2:00 PM17 °FCold.15 mph71%29.67 "HgN/A
1:00 PM18 °FSnow flurries. Overcast.14 mph71%29.69 "Hg12 mi
12:00 PM18 °FCold.13 mph71%29.70 "HgN/A
11:00 AM19 °FCold.10 mph69%29.71 "HgN/A
10:00 AM19 °FOvercast.7 mph64%29.71 "Hg12 mi
9:00 AM19 °FCold.6 mph68%29.72 "HgN/A
8:00 AM20 °FCold.7 mph70%29.73 "HgN/A
7:00 AM20 °FPassing clouds.8 mph72%29.73 "Hg12 mi
6:00 AM20 °FCold.9 mph76%29.73 "HgN/A
5:00 AM20 °FCold.10 mph79%29.74 "HgN/A
4:00 AM20 °FCold.10 mph80%29.75 "HgN/A
3:00 AM20 °FCold.10 mph78%29.76 "HgN/A
2:00 AM21 °FCold.6 mph76%29.77 "HgN/A
1:00 AM20 °FSnow flurries. Passing clouds.5 mph82%29.77 "Hg2 mi
12:00 AM20 °FCold.3 mph67%29.79 "HgN/A
Weather by CustomWeather, © 2014

See weather overviewHow to use our weather pages